Find STARLINK-37861

NORAD ID: 799500982 Int'l Des: 2026-135G Constellation: starlink operational

現在のビュー

3D地球を読み込み中...

About STARLINK-37861

STARLINK-37861 (NORAD 799500982) is a starlink constellation satellite launched Jun 8, 2026

STARLINK-37861について

説明を読み込み中...

次回通過

Passes for default location (London). Set your location on the main map for personalized predictions.

高度履歴

Loading altitude history...

軌道要素

1 99999C 2026135G 26167.13034721 .00409480 00000-0 634590-4 0 1670
2 99999 97.2794 193.9407 0010562 265.2037 118.7409 16.03851759 13
Epoch: Jun 16, 2026 • Age: 4 hours